Location: Fuglau
(48.6333°N, 15.5500°E)
Time: 18:17:48
(UTC+00:00)

Cosmos 2369 Rocket - Pass Details

Date: 27 February 2020
Orbit: 827 x 854 km, 71.0° (Epoch: 28 March)

Event Time Altitude Azimuth Distance (km) Brightness Sun altitude
Rises 17:10:13 0° 212° (SSW) 3,383 5.9 -6.2°
Reaches altitude 10° 17:12:39 10° 214° (SW) 2,457 5.2 -6.6°
Maximum altitude 17:18:18 74° 300° (WNW) 884 2.5 -7.5°
Drops below altitude 10° 17:24:01 10° 25° (NNE) 2,489 4.4 -8.5°
Sets 17:26:30 0° 28° (NNE) 3,431 5.1 -8.9°
